Flight Track Log - Related Links

Times and Time Zones

All times are in EDT time to prevent confusion due to time zone crossing. See the SWA2280 flight status page for this flight to view local times or setup timezone preferences in your user account.

Time Position Orientation Groundspeed Altitude Reporting Facility
EDT Latitude Longitude Course Direction KTS MPH feet Rate Location/Type
Sat 19:51:55 32.9000 -96.9167 308° West 201 231 4,600  Level Dallas / Fort Worth TRACON
Sat 19:52:55 32.8833 -96.9833 253° West 256 295 7,700 3,298 Climbing Dallas / Fort Worth TRACON
Sat 19:55:06 32.6950 -97.0111 187° South 329 379 15,100 3,173 Climbing Fort Worth Center
Sat 19:56:00 32.4748 -97.0398 189° South  Level Estimated
Sat 19:56:06 32.5969 -97.0239 186° South 361 415 17,800  Level Fort Worth Center
Sat 19:57:06 32.5008 -97.0342 185° South 383 441 20,700 3,100 Climbing Fort Worth Center
Sat 19:58:06 32.3819 -97.0492 186° South 389 448 24,000 3,200 Climbing Fort Worth Center
Sat 19:59:06 32.2756 -97.0594 185° South 389 448 27,100 2,000 Climbing Fort Worth Center
Sat 20:00:06 32.1669 -97.0647 182° South 384 442 28,000 450 Climbing Fort Worth Center
Sat 20:01:06 32.0583 -97.0678 181° South 389 448 28,000  Level Fort Worth Center
Sat 20:02:06 31.9581 -97.0681 180° South 397 457 28,000  Level Fort Worth Center
Sat 20:03:06 31.8350 -97.0733 182° South 402 463 28,000  Level Fort Worth Center
Sat 20:04:06 31.7244 -97.0764 181° South 402 463 28,000  Level Fort Worth Center
Sat 20:05:54 31.5258 -97.0856 182° South 396 456 28,000  Level Houston Center
Sat 20:06:55 31.4214 -97.1267 199° South 390 449 28,000  Level Houston Center
Sat 20:07:57 31.3169 -97.1664 198° South 389 448 28,000  Level Houston Center
Sat 20:08:58 31.2128 -97.2078 199° South 391 450 28,000  Level Houston Center
Sat 20:09:59 31.1078 -97.2489 199° South 394 453 28,000  Level Houston Center
Sat 20:11:00 31.0039 -97.2900 199° South 395 455 28,000  Level Houston Center
Sat 20:12:01 30.8950 -97.3300 197° South 401 461 28,000  Level Houston Center
Sat 20:13:03 30.7950 -97.3692 199° South 400 460 28,000  Level Houston Center
Sat 20:14:04 30.6906 -97.4094 198° South 394 453 28,000 -295 Level Houston Center
Sat 20:15:05 30.5700 -97.4567 199° South 390 449 27,400 -1,180 Descending Houston Center
Sat 20:16:06 30.4778 -97.4922 198° South 351 404 25,600 -1,770 Descending Houston Center
Sat 20:17:07 30.3842 -97.5294 199° South 352 405 23,800 -1,805 Descending Houston Center
Sat 20:18:09 30.2972 -97.5881 210° Southwest 353 406 21,900 -1,761 Descending Houston Center
Sat 20:18:56 30.2414 -97.6244 209° Southwest 346 398 20,600 -1,880 Descending Houston Center
Sat 20:19:32 30.1825 -97.6683 213° Southwest 334 384 19,300 -1,760 Descending Houston Center
Sat 20:20:11 30.1367 -97.6975 209° Southwest 327 376 18,400 -1,672 Descending Houston Center
Sat 20:20:33 30.1036 -97.7197 210° Southwest 317 365 17,600 -1,770 Descending Houston Center
Sat 20:21:12 30.0597 -97.7500 211° Southwest 306 352 16,600 -1,574 Descending Houston Center
Sat 20:21:34 30.0328 -97.7697 212° Southwest 303 349 16,000 -1,672 Descending Houston Center
Sat 20:22:13 29.9875 -97.8003 210° Southwest 301 346 14,900 -1,700 Descending Houston Center
Sat 20:22:34 29.9597 -97.8178 209° Southwest 297 342 14,300 -1,645 Descending Houston Center
Sat 20:23:15 29.9119 -97.8517 212° Southwest 293 337 13,200 -1,164 Descending Houston Center
Sat 20:23:41 29.8919 -97.8769 228° Southwest 289 333 13,000 -197 Descending Houston Center
Sat 20:24:16 29.8692 -97.9283 243° Southwest 294 338 13,000  Level Houston Center
Sat 20:24:42 29.8556 -97.9586 243° Southwest 288 331 13,000 -984 Level Houston Center
Sat 20:25:17 29.8344 -98.0108 245° Southwest 290 334 12,000 -1,900 Descending Houston Center
Sat 20:25:42 29.8181 -98.0503 244° Southwest 295 339 11,100 -1,770 Descending Houston Center
Sat 20:26:18 29.7983 -98.0964 244° Southwest 296 341 10,200 -1,475 Descending Houston Center
Sat 20:26:43 29.7819 -98.1364 245° Southwest 301 346 9,600 -1,377 Descending Houston Center
Sat 20:27:19 29.7600 -98.1872 244° Southwest 294 338 8,800 -1,400 Descending Houston Center
Sat 20:27:43 29.7478 -98.2178 245° Southwest 286 329 8,200 -1,574 Descending Houston Center
Sat 20:28:20 29.7256 -98.2678 243° Southwest 282 325 7,200 -1,527 Descending Houston Center
Sat 20:28:38 29.7150 -98.2939 245° Southwest 279 321 6,800 -1,475 Descending Houston Center
Sat 20:29:21 29.6914 -98.3483 243° Southwest 281 323 5,700 -1,475 Descending Houston Center
Sat 20:29:39 29.6822 -98.3725 246° West 282 325 5,300 -1,475 Descending Houston Center
Sat 20:30:22 29.6594 -98.4303 246° West 283 326 4,200 -1,300 Descending Houston Center
Sat 20:30:39 29.6500 -98.4558 247° West 283 326 4,000 -194 Descending Houston Center
Sat 20:31:24 29.6256 -98.5011 238° Southwest 220 253 4,000 -197 Level Houston Center
Sat 20:31:40 29.6194 -98.5122 238° Southwest 181 208 3,800 -1,377 Descending Houston Center
Sat 20:32:25 29.5939 -98.5375 221° Southwest 171 197 2,600 -1,600 Descending Houston Center
Sat 20:32:40 29.5819 -98.5361 174° South 144 166 2,200 -1,180 Descending Houston Center
Sat 20:33:26 29.5639 -98.5114 130° Southeast 140 161 1,400 -984 Descending Houston Center
Sat 20:33:41 29.5558 -98.5031 138° Southeast 128 147 1,200 -590 Descending Houston Center
Sat 20:34:27 29.5408 -98.4811 128° Southeast 130 150 800 -522 Descending Houston Center
Sat 20:36:00 29.5340 -98.4691 221° Southwest  Level Estimated
Sat 20:43:00 29.5333 -98.4667 16° North  Level FlightAware Approximate

Login

Don't have an account? Register now (free) for customized features, flight alerts, and more!